This demonstration page uses our WeatherBlox Daily Observations layout. Learn more.

Left ArrowRight Arrow

Hourly Observations for May 12, 2022

Temp ( °F °C ) Dew Point ( °F °C ) Humidity (%) Winds ( mph kmh ) Pressure ( in mb ) Visibility ( mi km ) Precip ( " mm )
12:56 am 00:56 Clear 77 25 67 19.3 71 71 SE 8 13 29.91 1013 10 16 0.00 0.00
1:56 am 01:56 Clear 76 24.6 67 19.6 74 74 SE 8 13 29.91 1013 10 16 0.00 0.00
2:56 am 02:56 Clear 74 23.6 67 19.5 78 78 SSE 8 13 29.90 1013 10 16 0.00 0.00
3:56 am 03:56 Clear 73 22.8 66 19.1 80 80 SSE 9 15 29.89 1012 10 16 0.00 0.00
4:56 am 04:56 undefined 72 22.2 66 18.8 81 81 SSE 9 15 29.88 1012 10 16 0.00 0.00
5:56 am 05:56 Clear 71 21.7 65 18.3 81 81 SSE 10 17 29.87 1012 10 16 0.00 0.00
6:56 am 06:56 Sunny 71 21.7 65 18.1 80 80 SSE 14 22 29.87 1012 10 16 0.00 0.00
7:56 am 07:56 Sunny 74 23.3 65 18.6 75 75 SSE 18 30 29.87 1012 10 16 0.00 0.00
8:56 am 08:56 Sunny 77 25.1 67 19.2 70 70 S 15 24 29.86 1011 10 16 0.00 0.00
9:56 am 09:56 Sunny 80 26.8 67 19.4 64 64 S 15 24 29.85 1011 10 16 0.00 0.00
10:56 am 10:56 Mostly Sunny 84 28.9 67 19.5 57 57 S 18 30 29.84 1011 10 16 0.00 0.00
11:56 am 11:56 Mostly Sunny 87 30.7 67 19.7 52 52 S 16 26 29.82 1010 10 16 0.00 0.00
12:56 pm 12:56 Mostly Sunny 90 32 68 19.9 49 49 SSE 20 31 29.79 1009 9 14 0.00 0.00
1:56 pm 13:56 Hazy 94 34.4 64 17.6 37 37 S 17 28 29.75 1007 5 8 0.00 0.00
2:56 pm 14:56 Sunny 95 35.1 62 16.4 33 33 SSE 25 41 29.74 1007 7 11 0.00 0.00
3:56 pm 15:56 Sunny 95 35.1 62 16.4 33 33 S 25 41 29.70 1006 7 11 0.00 0.00
4:56 pm 16:56 Sunny 95 34.8 62 16.6 34 34 S 26 43 29.68 1005 8 13 0.00 0.00
5:56 pm 17:56 Sunny 95 34.8 52 11.2 24 24 S 23 37 29.68 1005 8 13 0.00 0.00
6:56 pm 18:56 Mostly Sunny 92 33.2 50 9.9 24 24 S 17 28 29.68 1005 9 14 0.00 0.00
7:56 pm 19:56 Mostly Cloudy 90 32.3 49 9.7 25 25 S 14 22 29.73 1007 10 16 0.00 0.00
8:24 pm 20:24 undefined 90 32 50 10 26 26 W 21 33 29.79 1009 10 16 0.00 0.00
8:50 pm 20:50 Mostly Cloudy with Thunderstorms 81 27 57 14 45 45 NW 13 20 29.78 1009 9 14 0.00 0.00
8:56 pm 20:56 Mostly Cloudy with Thunderstorms 80 26.8 58 14.5 47 47 NNW 8 13 29.77 1008 9 14 0.00 0.00
9:30 pm 21:30 Mostly Clear 79 26 57 14 48 48 E 6 9 29.73 1007 10 16 0.00 0.00
9:56 pm 21:56 Mostly Cloudy 79 26.3 53 11.6 40 40 E 5 7 29.75 1008 10 16 0.00 0.00
10:37 pm 22:37 Windy with Rain Showers Likely 77 25 54 12 44 44 WNW 24 39 29.87 1012 4 6 0.00 0.00
10:56 pm 22:56 Cloudy 73 22.7 53 11.7 50 50 WNW 17 28 29.90 1012 10 16 0.00 0.00
11:56 pm 23:56 Cloudy with Light Showers 67 19.6 55 12.8 65 65 W 10 17 29.96 1015 10 16 0.01 0.25

Powered by AerisWeather